Вернуться в каталог

OPS 4682 DEB

АктивенPO
NORAD 55116·DEBRIS·🇺🇸 United States

Запущен Apr 3, 1965 с Vandenberg Space Force Base

Loading…

Ближайшие Пролёты (ближайшие 24 часа)

TLE

СвежийSource: Space-Track

Эпоха: Sep 14, 2026, 06:22 UTC

1 55116U 65027HF  26257.26576513 -.00000661  00000-0 -22482-2 0  9990
2 55116  90.2501   9.1988 0033325 110.5780 249.8922 12.99015567525643

Отслеживайте OPS 4682 DEB в реальном времени с AllMySat

Download on the App Store